Date,Installs,Update checks
2014-04-05,1,
2014-04-06,0,
2014-04-07,0,
2014-04-08,0,
2014-04-09,0,
2014-04-10,0,
2014-04-11,0,
2014-04-12,0,
2014-04-13,2,
2014-04-14,5,
2014-04-15,0,
2014-04-16,0,
2014-04-17,0,
2014-04-18,1,
2014-04-19,0,
2014-04-20,0,
2014-04-21,1,
2014-04-22,2,
2014-04-23,0,
2014-04-24,0,
2014-04-25,2,
2014-04-26,0,
2014-04-27,1,
2014-04-28,0,
2014-04-29,0,
2014-04-30,2,
2014-05-01,4,
2014-05-02,2,
2014-05-03,4,
2014-05-04,0,
2014-05-05,1,
2014-05-06,3,
2014-05-07,15,
2014-05-08,10,
2014-05-09,11,
2014-05-10,15,
2014-05-11,18,
2014-05-12,3,
2014-05-13,4,
2014-05-14,4,
2014-05-15,6,
2014-05-16,8,
2014-05-17,4,
2014-05-18,5,
2014-05-19,5,
2014-05-20,3,
2014-05-21,4,
2014-05-22,1,
2014-05-23,0,
2014-05-24,8,
2014-05-25,3,
2014-05-26,3,
2014-05-27,11,
2014-05-28,22,
2014-05-29,15,
2014-05-30,8,
2014-05-31,5,
2014-06-01,2,
2014-06-02,1,
2014-06-03,5,
2014-06-04,8,
2014-06-05,9,
2014-06-06,10,
2014-06-07,13,
2014-06-08,3,
2014-06-09,15,
2014-06-10,6,
2014-06-11,6,
2014-06-12,6,
2014-06-13,6,
2014-06-14,7,
2014-06-15,4,
2014-06-16,20,
2014-06-17,13,
2014-06-18,37,
2014-06-19,17,
2014-06-20,21,
2014-06-21,15,
2014-06-22,9,
2014-06-23,10,
2014-06-24,17,
2014-06-25,9,
2014-06-26,4,
2014-06-27,2,
2014-06-28,5,
2014-06-29,3,
2014-06-30,3,
2014-07-01,2,
2014-07-02,5,
2014-07-03,7,
2014-07-04,6,
2014-07-05,4,
2014-07-06,4,
2014-07-07,3,
2014-07-08,6,
2014-07-09,7,
2014-07-10,6,
2014-07-11,6,
2014-07-12,4,
2014-07-13,7,
2014-07-14,2,
2014-07-15,3,
2014-07-16,7,
2014-07-17,5,
2014-07-18,2,
2014-07-19,7,
2014-07-20,6,
2014-07-21,10,
2014-07-22,6,
2014-07-23,7,
2014-07-24,16,
2014-07-25,6,
2014-07-26,9,
2014-07-27,8,
2014-07-28,3,
2014-07-29,5,
2014-07-30,9,
2014-07-31,2,
2014-08-01,7,
2014-08-02,4,
2014-08-03,8,
2014-08-04,0,
2014-08-05,3,
2014-08-06,8,
2014-08-07,7,
2014-08-08,5,
2014-08-09,3,
2014-08-10,4,
2014-08-11,5,
2014-08-12,6,
2014-08-13,4,
2014-08-14,4,
2014-08-15,8,
2014-08-16,7,
2014-08-17,6,
2014-08-18,5,
2014-08-19,0,
2014-08-20,2,
2014-08-21,5,
2014-08-22,6,
2014-08-23,2,
2014-08-24,4,
2014-08-25,5,
2014-08-26,5,
2014-08-27,7,
2014-08-28,5,
2014-08-29,7,
2014-08-30,6,
2014-08-31,8,
2014-09-01,2,
2014-09-02,2,
2014-09-03,4,
2014-09-04,3,
2014-09-05,11,
2014-09-06,9,
2014-09-07,9,
2014-09-08,9,
2014-09-09,5,
2014-09-10,3,
2014-09-11,3,
2014-09-12,6,
2014-09-13,9,
2014-09-14,8,
2014-09-15,6,
2014-09-16,9,
2014-09-17,5,
2014-09-18,4,
2014-09-19,0,
2014-09-20,2,
2014-09-21,8,
2014-09-22,5,
2014-09-23,2,
2014-09-24,4,
2014-09-25,4,
2014-09-26,1,
2014-09-27,8,
2014-09-28,2,
2014-09-29,3,
2014-09-30,2,
2014-10-01,6,
2014-10-02,8,
2014-10-03,3,
2014-10-04,3,
2014-10-05,2,
2014-10-06,4,
2014-10-07,5,
2014-10-08,2,
2014-10-09,5,
2014-10-10,2,
2014-10-11,8,
2014-10-12,24,
2014-10-13,17,
2014-10-14,6,
2014-10-15,8,
2014-10-16,13,
2014-10-17,9,
2014-10-18,11,
2014-10-19,6,
2014-10-20,6,
2014-10-21,5,
2014-10-22,6,
2014-10-23,7,388
2014-10-24,5,280
2014-10-25,5,318
2014-10-26,6,279
2014-10-27,3,351
2014-10-28,5,287
2014-10-29,6,347
2014-10-30,5,291
2014-10-31,5,325
2014-11-01,6,309
2014-11-02,6,319
2014-11-03,2,301
2014-11-04,3,315
2014-11-05,6,313
2014-11-06,10,324
2014-11-07,6,336
2014-11-08,2,295
2014-11-09,2,285
2014-11-10,6,333
2014-11-11,4,298
2014-11-12,0,316
2014-11-13,4,325
2014-11-14,1,312
2014-11-15,7,294
2014-11-16,10,282
2014-11-17,2,323
2014-11-18,5,271
2014-11-19,3,271
2014-11-20,5,295
2014-11-21,3,303
2014-11-22,4,290
2014-11-23,4,280
2014-11-24,2,309
2014-11-25,2,305
2014-11-26,2,304
2014-11-27,5,285
2014-11-28,7,310
2014-11-29,5,296
2014-11-30,3,279
2014-12-01,3,325
2014-12-02,5,290
2014-12-03,5,344
2014-12-04,6,319
2014-12-05,2,349
2014-12-06,1,304
2014-12-07,7,346
2014-12-08,8,348
2014-12-09,5,331
2014-12-10,3,354
2014-12-11,3,340
2014-12-12,5,368
2014-12-13,10,333
2014-12-14,7,323
2014-12-15,5,355
2014-12-16,1,330
2014-12-17,5,348
2014-12-18,3,360
2014-12-19,6,354
2014-12-20,2,349
2014-12-21,4,317
2014-12-22,0,383
2014-12-23,1,338
2014-12-24,0,384
2014-12-25,1,315
2014-12-26,3,378
2014-12-27,4,316
2014-12-28,2,335
2014-12-29,2,381
2014-12-30,3,338
2014-12-31,0,358
2015-01-01,7,311
2015-01-02,4,314
2015-01-03,2,319
2015-01-04,0,357
2015-01-05,4,342
2015-01-06,3,346
2015-01-07,4,353
2015-01-08,0,365
2015-01-09,1,350
2015-01-10,0,350
2015-01-11,1,333
2015-01-12,16,389
2015-01-13,15,384
2015-01-14,11,401
2015-01-15,13,388
2015-01-16,7,381
2015-01-17,9,353
2015-01-18,7,354
2015-01-19,5,386
2015-01-20,4,378
2015-01-21,2,360
2015-01-22,5,391
2015-01-23,5,375
2015-01-24,12,345
2015-01-25,8,356
2015-01-26,10,384
2015-01-27,10,371
2015-01-28,4,377
2015-01-29,9,365
2015-01-30,5,389
2015-01-31,2,326
2015-02-01,5,379
2015-02-02,5,379
2015-02-03,4,369
2015-02-04,4,383
2015-02-05,3,356
2015-02-06,1,385
2015-02-07,3,336
2015-02-08,2,358
2015-02-09,2,394
2015-02-10,4,366
2015-02-11,5,379
2015-02-12,8,320
2015-02-13,3,373
2015-02-14,9,340
2015-02-15,3,340
2015-02-16,2,310
2015-02-17,2,326
2015-02-18,2,267
2015-02-19,1,272
2015-02-20,5,292
2015-02-21,7,278
2015-02-22,3,292
2015-02-23,4,281
2015-02-24,5,321
2015-02-25,5,349
2015-02-26,5,375
2015-02-27,10,354
2015-02-28,7,375
2015-03-01,3,344
2015-03-02,0,377
2015-03-03,5,383
2015-03-04,3,381
2015-03-05,3,394
2015-03-06,4,399
2015-03-07,4,361
2015-03-08,4,388
2015-03-09,4,405
2015-03-10,5,395
2015-03-11,8,408
2015-03-12,7,371
2015-03-13,3,429
2015-03-14,7,369
2015-03-15,2,409
2015-03-16,5,406
2015-03-17,6,399
2015-03-18,3,397
2015-03-19,5,402
2015-03-20,0,420
2015-03-21,4,370
2015-03-22,4,411
2015-03-23,4,420
2015-03-24,9,396
2015-03-25,0,413
2015-03-26,4,412
2015-03-27,2,434
2015-03-28,6,376
2015-03-29,5,392
2015-03-30,2,426
2015-03-31,1,404
2015-04-01,4,397
2015-04-02,9,398
2015-04-03,8,429
2015-04-04,1,353
2015-04-05,5,366
2015-04-06,5,375
2015-04-07,7,435
2015-04-08,3,406
2015-04-09,4,426
2015-04-10,3,412
2015-04-11,7,384
2015-04-12,2,385
2015-04-13,4,425
2015-04-14,1,400
2015-04-15,4,396
2015-04-16,5,377
2015-04-17,9,398
2015-04-18,10,367
2015-04-19,11,374
2015-04-20,11,435
2015-04-21,6,383
2015-04-22,5,428
2015-04-23,2,377
2015-04-24,3,428
2015-04-25,4,375
2015-04-26,5,376
2015-04-27,8,414
2015-04-28,4,384
2015-04-29,4,414
2015-04-30,3,409
2015-05-01,7,378
2015-05-02,15,337
2015-05-03,8,386
2015-05-04,6,427
2015-05-05,7,397
2015-05-06,6,434
2015-05-07,6,386
2015-05-08,6,440
2015-05-09,9,375
2015-05-10,6,380
2015-05-11,0,441
2015-05-12,3,410
2015-05-13,6,417
2015-05-14,4,416
2015-05-15,6,450
2015-05-16,12,388
2015-05-17,7,386
2015-05-18,7,446
2015-05-19,7,434
2015-05-20,5,434
2015-05-21,3,420
2015-05-22,1,418
2015-05-23,5,384
2015-05-24,9,416
2015-05-25,5,431
2015-05-26,2,414
2015-05-27,11,420
2015-05-28,2,45
2015-05-29,8,558
2015-05-30,16,332
2015-05-31,9,447
2015-06-01,7,430
2015-06-02,5,419
2015-06-03,8,457
2015-06-04,8,419
2015-06-05,5,464
2015-06-06,11,409
2015-06-07,6,411
2015-06-08,11,455
2015-06-09,4,419
2015-06-10,4,471
2015-06-11,8,415
2015-06-12,8,474
2015-06-13,1,414
2015-06-14,2,402
2015-06-15,0,286
2015-06-16,2,484
2015-06-17,4,440
2015-06-18,2,444
2015-06-19,9,436
2015-06-20,7,391
2015-06-21,6,377
2015-06-22,2,416
2015-06-23,2,447
2015-06-24,6,436
2015-06-25,5,407
2015-06-26,2,447
2015-06-27,9,373
2015-06-28,2,418
2015-06-29,9,429
2015-06-30,8,413
2015-07-01,7,435
2015-07-02,8,390
2015-07-03,5,449
2015-07-04,7,393
2015-07-05,2,385
2015-07-06,2,403
2015-07-07,3,417
2015-07-08,3,408
2015-07-09,3,387
2015-07-10,2,418
2015-07-11,3,378
2015-07-12,5,365
2015-07-13,4,405
2015-07-14,1,400
2015-07-15,2,384
2015-07-16,3,426
2015-07-17,3,400
2015-07-18,3,408
2015-07-19,2,365
2015-07-20,0,441
2015-07-21,1,371
2015-07-22,6,422
2015-07-23,3,383
2015-07-24,8,421
2015-07-25,13,402
2015-07-26,7,411
2015-07-27,5,405
2015-07-28,9,408
2015-07-29,8,434
2015-07-30,4,371
2015-07-31,4,424
2015-08-01,3,386
2015-08-02,2,360
2015-08-03,8,419
2015-08-04,6,388
2015-08-05,6,405
2015-08-06,7,376
2015-08-07,2,419
2015-08-08,8,361
2015-08-09,3,373
2015-08-10,5,427
2015-08-11,4,406
2015-08-12,7,442
2015-08-13,7,407
2015-08-14,7,434
2015-08-15,5,362
2015-08-16,6,391
2015-08-17,14,425
2015-08-18,7,398
2015-08-19,12,405
2015-08-20,9,415
2015-08-21,10,406
2015-08-22,8,388
2015-08-23,11,366
2015-08-24,4,423
2015-08-25,5,403
2015-08-26,3,405
2015-08-27,5,410
2015-08-28,2,418
2015-08-29,4,378
2015-08-30,1,366
2015-08-31,5,432
2015-09-01,10,392
2015-09-02,15,441
2015-09-03,6,395
2015-09-04,3,381
2015-09-05,2,403
2015-09-06,4,442
2015-09-07,6,426
2015-09-08,6,427
2015-09-09,7,423
2015-09-10,4,404
2015-09-11,7,441
2015-09-12,5,408
2015-09-13,13,395
2015-09-14,7,402
2015-09-15,5,418
2015-09-16,2,430
2015-09-17,5,401
2015-09-18,6,445
2015-09-19,10,377
2015-09-20,4,378
2015-09-21,4,437
2015-09-22,3,420
2015-09-23,4,433
2015-09-24,1,417
2015-09-25,2,437
2015-09-26,3,384
2015-09-27,2,373
2015-09-28,2,449
2015-09-29,2,413
2015-09-30,5,437
2015-10-01,8,379
2015-10-02,4,349
2015-10-03,4,364
2015-10-04,3,374
2015-10-05,4,355
2015-10-06,2,397
2015-10-07,9,400
2015-10-08,9,422
2015-10-09,4,414
2015-10-10,3,433
2015-10-11,1,374
2015-10-12,2,448
2015-10-13,5,387
2015-10-14,3,443
2015-10-15,10,401
2015-10-16,6,431
2015-10-17,7,389
2015-10-18,3,391
2015-10-19,2,431
2015-10-20,5,406
2015-10-21,5,433
2015-10-22,9,393
2015-10-23,7,435
2015-10-24,17,410
2015-10-25,8,385
2015-10-26,3,430
2015-10-27,6,402
2015-10-28,7,438
2015-10-29,13,405
2015-10-30,5,445
2015-10-31,7,379
2015-11-01,7,383
2015-11-02,2,418
2015-11-03,1,432
2015-11-04,3,420
2015-11-05,4,410
2015-11-06,0,407
2015-11-07,2,395
2015-11-08,4,376
2015-11-09,5,400
2015-11-10,1,383
2015-11-11,2,372
2015-11-12,2,379
2015-11-13,7,404
2015-11-14,6,308
2015-11-15,7,336
2015-11-16,2,373
2015-11-17,3,326
2015-11-18,4,346
2015-11-19,5,346
2015-11-20,2,344
2015-11-21,4,326
2015-11-22,3,299
2015-11-23,5,343
2015-11-24,6,292
2015-11-25,3,338
2015-11-26,1,312
2015-11-27,2,334
2015-11-28,4,299
2015-11-29,3,292
2015-11-30,1,323
2015-12-01,2,303
2015-12-02,3,303
2015-12-03,2,305
2015-12-04,3,299
2015-12-05,6,306
2015-12-06,3,269
2015-12-07,3,319
2015-12-08,1,298
2015-12-09,3,304
2015-12-10,2,288
2015-12-11,5,306
2015-12-12,7,281
2015-12-13,3,291
2015-12-14,2,310
2015-12-15,0,287
2015-12-16,1,312
2015-12-17,1,296
2015-12-18,2,339
2015-12-19,1,292
2015-12-20,1,281
2015-12-21,2,315
2015-12-22,5,304
2015-12-23,8,316
2015-12-24,2,309
2015-12-25,3,299
2015-12-26,6,292
2015-12-27,4,278
2015-12-28,1,322
2015-12-29,1,300
2015-12-30,3,307
2015-12-31,4,303
2016-01-01,3,265
2016-01-02,3,304
2016-01-03,3,275
2016-01-04,3,315
2016-01-05,5,282
2016-01-06,2,329
2016-01-07,2,288
2016-01-08,1,299
2016-01-09,0,302
2016-01-10,4,270
2016-01-11,3,325
2016-01-12,1,293
2016-01-13,1,316
2016-01-14,1,285
2016-01-15,3,309
2016-01-16,6,275
2016-01-17,2,284
2016-01-18,3,314
2016-01-19,6,275
2016-01-20,0,305
2016-01-21,7,305
2016-01-22,3,307
2016-01-23,7,282
2016-01-24,5,244
2016-01-25,1,316
2016-01-26,2,246
2016-01-27,3,318
2016-01-28,3,254
2016-01-29,4,294
2016-01-30,3,231
2016-01-31,2,269
2016-02-01,0,288
2016-02-02,1,243
2016-02-03,2,253
2016-02-04,1,236
2016-02-05,4,243
2016-02-06,0,225
2016-02-07,3,195
2016-02-08,2,206
2016-02-09,1,201
2016-02-10,2,215
2016-02-11,2,154
2016-02-12,1,216
2016-02-13,1,212
2016-02-14,0,269
2016-02-15,3,237
2016-02-16,1,265
2016-02-17,3,258
2016-02-18,0,283
2016-02-19,5,270
2016-02-20,3,266
2016-02-21,2,242
2016-02-22,3,292
2016-02-23,3,257
2016-02-24,3,299
2016-02-25,4,266
2016-02-26,0,294
2016-02-27,0,262
2016-02-28,0,259
2016-02-29,0,296
2016-03-01,0,268
2016-03-02,1,289
2016-03-03,4,263
2016-03-04,1,287
2016-03-05,2,263
2016-03-06,1,250
2016-03-07,3,278
2016-03-08,4,263
2016-03-09,2,288
2016-03-10,1,276
2016-03-11,1,286
2016-03-12,2,257
2016-03-13,1,248
2016-03-14,0,293
2016-03-15,3,247
2016-03-16,3,269
2016-03-17,7,268
2016-03-18,0,287
2016-03-19,1,230
2016-03-20,3,241
2016-03-21,3,277
2016-03-22,2,256
2016-03-23,2,280
2016-03-24,2,240
2016-03-25,1,281
2016-03-26,5,251
2016-03-27,0,252
2016-03-28,3,283
2016-03-29,1,255
2016-03-30,2,270
2016-03-31,2,274
2016-04-01,2,260
2016-04-02,4,261
2016-04-03,1,218
2016-04-04,2,250
2016-04-05,6,291
2016-04-06,1,253
2016-04-07,2,293
2016-04-08,1,259
2016-04-09,8,236
2016-04-10,1,216
2016-04-11,2,288
2016-04-12,2,261
2016-04-13,0,284
2016-04-14,1,247
2016-04-15,1,307
2016-04-16,2,257
2016-04-17,1,256
2016-04-18,1,298
2016-04-19,0,258
2016-04-20,3,285
2016-04-21,5,258
2016-04-22,5,308
2016-04-23,2,248
2016-04-24,2,274
2016-04-25,2,277
2016-04-26,1,269
2016-04-27,1,278
2016-04-28,3,280
2016-04-29,6,267
2016-04-30,5,258
2016-05-01,3,234
2016-05-02,5,242
2016-05-03,1,277
2016-05-04,3,269
2016-05-05,4,279
2016-05-06,2,270
2016-05-07,2,257
2016-05-08,2,252
2016-05-09,4,298
2016-05-10,0,247
2016-05-11,5,269
2016-05-12,3,257
2016-05-13,1,291
2016-05-14,1,235
2016-05-15,1,244
2016-05-16,2,283
2016-05-17,3,277
2016-05-18,0,276
2016-05-19,1,286
2016-05-20,2,307
2016-05-21,1,298
2016-05-22,0,276
2016-05-23,3,307
2016-05-24,1,319
2016-05-25,2,317
2016-05-26,3,326
2016-05-27,2,342
2016-05-28,2,314
2016-05-29,1,302
2016-05-30,8,358
2016-05-31,8,360
2016-06-01,3,358
2016-06-02,3,364
2016-06-03,5,358
2016-06-04,1,335
2016-06-05,3,339
2016-06-06,3,383
2016-06-07,0,371
2016-06-08,1,372
2016-06-09,1,323
2016-06-10,2,341
2016-06-11,2,344
2016-06-12,3,389
2016-06-13,1,380
2016-06-14,2,393
2016-06-15,3,365
2016-06-16,1,400
2016-06-17,2,390
2016-06-18,1,362
2016-06-19,1,351
2016-06-20,1,400
2016-06-21,3,356
2016-06-22,3,394
2016-06-23,2,370
2016-06-24,4,387
2016-06-25,2,355
2016-06-26,1,348
2016-06-27,1,404
2016-06-28,0,344
2016-06-29,1,405
2016-06-30,3,381
2016-07-01,3,388
2016-07-02,1,353
2016-07-03,2,347
2016-07-04,2,386
2016-07-05,3,348
2016-07-06,2,387
2016-07-07,2,354
2016-07-08,3,391
2016-07-09,1,328
2016-07-10,1,363
2016-07-11,1,385
2016-07-12,6,378
2016-07-13,3,369
2016-07-14,0,365
2016-07-15,1,399
2016-07-16,2,338
2016-07-17,3,324
2016-07-18,3,395
2016-07-19,1,360
2016-07-20,2,377
2016-07-21,0,373
2016-07-22,1,366
2016-07-23,1,327
2016-07-24,5,331
2016-07-25,1,367
2016-07-26,0,369
2016-07-27,4,375
2016-07-28,3,358
2016-07-29,3,364
2016-07-30,3,328
2016-07-31,0,331
2016-08-01,0,368
2016-08-02,1,357
2016-08-03,3,371
2016-08-04,6,333
2016-08-05,6,393
2016-08-06,2,329
2016-08-07,0,338
2016-08-08,2,378
2016-08-09,2,350
2016-08-10,1,352
2016-08-11,3,375
2016-08-12,0,376
2016-08-13,2,349
2016-08-14,2,344
2016-08-15,1,372
2016-08-16,3,335
2016-08-17,0,383
2016-08-18,4,370
2016-08-19,1,369
2016-08-20,1,348
2016-08-21,2,325
2016-08-22,2,387
2016-08-23,4,351
2016-08-24,2,372
2016-08-25,1,337
2016-08-26,3,370
2016-08-27,3,344
2016-08-28,0,354
2016-08-29,2,372
2016-08-30,0,356
2016-08-31,3,354
2016-09-01,2,338
2016-09-02,2,384
2016-09-03,0,327
2016-09-04,1,318
2016-09-05,3,379
2016-09-06,1,387
2016-09-07,2,364
2016-09-08,1,347
2016-09-09,2,381
2016-09-10,0,359
2016-09-11,4,367
2016-09-12,0,391
2016-09-13,1,364
2016-09-14,2,409
2016-09-15,0,324
2016-09-16,1,343
2016-09-17,2,314
2016-09-18,0,385
2016-09-19,3,350
2016-09-20,1,400
2016-09-21,3,391
2016-09-22,2,370
2016-09-23,0,380
2016-09-24,4,360
2016-09-25,3,352
2016-09-26,1,431
2016-09-27,2,348
2016-09-28,1,406
2016-09-29,0,395
2016-09-30,8,401
2016-10-01,2,322
2016-10-02,3,314
2016-10-03,3,341
2016-10-04,4,331
2016-10-05,3,326
2016-10-06,1,350
2016-10-07,3,336
2016-10-08,0,419
2016-10-09,0,335
2016-10-10,1,409
2016-10-11,2,352
2016-10-12,1,410
2016-10-13,2,364
2016-10-14,1,397
2016-10-15,4,351
2016-10-16,0,362
2016-10-17,0,388
2016-10-18,2,368
2016-10-19,2,394
2016-10-20,1,380
2016-10-21,1,385
2016-10-22,2,356
2016-10-23,0,356
2016-10-24,0,405
2016-10-25,2,360
2016-10-26,2,381
2016-10-27,0,369
2016-10-28,2,414
2016-10-29,0,341
2016-10-30,2,342
2016-10-31,2,441
2016-11-01,1,367
2016-11-02,4,413
2016-11-03,1,345
2016-11-04,0,392
2016-11-05,2,346
2016-11-06,2,332
2016-11-07,1,403
2016-11-08,0,346
2016-11-09,1,371
2016-11-10,2,377
2016-11-11,0,385
2016-11-12,3,369
2016-11-13,9,348
2016-11-14,1,415
2016-11-15,3,391
2016-11-16,1,501
2016-11-17,1,485
2016-11-18,0,566
2016-11-19,1,480
2016-11-20,2,450
2016-11-21,0,595
2016-11-22,0,493
2016-11-23,1,547
2016-11-24,3,499
2016-11-25,2,541
2016-11-26,1,474
2016-11-27,3,475
2016-11-28,2,540
2016-11-29,1,526
2016-11-30,0,526
2016-12-01,0,546
2016-12-02,2,534
2016-12-03,1,500
2016-12-04,4,452
2016-12-05,1,565
2016-12-06,0,475
2016-12-07,6,569
2016-12-08,1,494
2016-12-09,3,583
2016-12-10,3,507
2016-12-11,2,503
2016-12-12,3,588
2016-12-13,0,496
2016-12-14,6,558
2016-12-15,0,508
2016-12-16,1,542
2016-12-17,3,481
2016-12-18,2,477
2016-12-19,1,576
2016-12-20,1,491
2016-12-21,1,542
2016-12-22,2,497
2016-12-23,1,524
2016-12-24,1,466
2016-12-25,0,473
2016-12-26,4,525
2016-12-27,1,482
2016-12-28,1,521
2016-12-29,4,481
2016-12-30,5,510
2016-12-31,3,414
2017-01-01,6,426
2017-01-02,3,466
2017-01-03,1,502
2017-01-04,0,482
2017-01-05,1,503
2017-01-06,1,474
2017-01-07,3,441
2017-01-08,2,429
2017-01-09,4,524
2017-01-10,2,464
2017-01-11,2,537
2017-01-12,0,463
2017-01-13,3,511
2017-01-14,1,432
2017-01-15,4,451
2017-01-16,0,510
2017-01-17,3,469
2017-01-18,2,504
2017-01-19,0,472
2017-01-20,3,484
2017-01-21,0,412
2017-01-22,4,466
2017-01-23,1,400
2017-01-24,2,438
2017-01-25,1,392
2017-01-26,2,352
2017-01-27,0,340
2017-01-28,0,315
2017-01-29,1,338
2017-01-30,4,337
2017-01-31,2,334
2017-02-01,0,369
2017-02-02,0,375
2017-02-03,2,392
2017-02-04,7,419
2017-02-05,1,419
2017-02-06,3,489
2017-02-07,3,440
2017-02-08,7,466
2017-02-09,0,430
2017-02-10,1,465
2017-02-11,1,412
2017-02-12,0,413
2017-02-13,0,476
2017-02-14,2,465
2017-02-15,1,482
2017-02-16,1,459
2017-02-17,2,492
2017-02-18,5,449
2017-02-19,1,411
2017-02-20,0,496
2017-02-21,3,454
2017-02-22,0,493
2017-02-23,3,472
2017-02-24,3,483
2017-02-25,2,417
2017-02-26,1,372
2017-02-27,2,488
2017-02-28,2,428
2017-03-01,2,492
2017-03-02,1,407
2017-03-03,2,497
2017-03-04,3,424
2017-03-05,4,391
2017-03-06,2,482
2017-03-07,3,438
2017-03-08,2,460
2017-03-09,1,430
2017-03-10,1,476
2017-03-11,1,398
2017-03-12,7,402
2017-03-13,6,505
2017-03-14,3,416
2017-03-15,0,491
2017-03-16,1,414
2017-03-17,1,480
2017-03-18,3,391
2017-03-19,3,436
2017-03-20,1,481
2017-03-21,2,426
2017-03-22,1,466
2017-03-23,4,456
2017-03-24,2,478
2017-03-25,2,403
2017-03-26,0,400
2017-03-27,2,485
2017-03-28,1,437
2017-03-29,1,496
2017-03-30,2,463
2017-03-31,0,455
2017-04-01,4,440
2017-04-02,3,377
2017-04-03,1,425
2017-04-04,3,369
2017-04-05,10,498
2017-04-06,0,432
2017-04-07,1,489
2017-04-08,2,404
2017-04-09,4,400
2017-04-10,1,504
2017-04-11,2,434
2017-04-12,2,477
2017-04-13,0,420
2017-04-14,4,448
2017-04-15,0,431
2017-04-16,1,425
2017-04-17,0,484
2017-04-18,2,439
2017-04-19,0,469
2017-04-20,1,445
2017-04-21,3,465
2017-04-22,1,18
2017-04-23,1,537
2017-04-24,3,389
2017-04-25,2,502
2017-04-26,2,418
2017-04-27,0,448
2017-04-28,1,437
2017-04-29,3,412
2017-04-30,2,386
2017-05-01,4,388
2017-05-02,0,467
2017-05-03,2,407
2017-05-04,0,470
2017-05-05,1,436
2017-05-06,3,423
2017-05-07,1,405
2017-05-08,3,466
2017-05-09,2,452
2017-05-10,0,447
2017-05-11,4,457
2017-05-12,1,454
2017-05-13,5,402
2017-05-14,0,411
2017-05-15,4,475
2017-05-16,1,414
2017-05-17,1,461
2017-05-18,2,424
2017-05-19,2,469
2017-05-20,2,385
2017-05-21,1,403
2017-05-22,1,461
2017-05-23,1,416
2017-05-24,4,457
2017-05-25,0,420
2017-05-26,3,457
2017-05-27,1,411
2017-05-28,3,371
2017-05-29,0,387
2017-05-30,0,395
2017-05-31,2,496
2017-06-01,3,402
2017-06-02,2,475
2017-06-03,1,386
2017-06-04,1,404
2017-06-05,1,461
2017-06-06,1,401
2017-06-07,2,450
2017-06-08,1,414
2017-06-09,0,422
2017-06-10,0,406
2017-06-11,3,394
2017-06-12,4,447
2017-06-13,0,399
2017-06-14,2,468
2017-06-15,2,418
2017-06-16,4,460
2017-06-17,0,374
2017-06-18,3,384
2017-06-19,2,451
2017-06-20,0,408
2017-06-21,2,428
2017-06-22,3,400
2017-06-23,2,433
2017-06-24,2,379
2017-06-25,3,357
2017-06-26,0,449
2017-06-27,1,380
2017-06-28,0,417
2017-06-29,2,394
2017-06-30,1,425
2017-07-01,1,371
2017-07-02,0,396
2017-07-03,2,433
2017-07-04,1,391
2017-07-05,1,435
2017-07-06,0,383
2017-07-07,3,405
2017-07-08,4,364
2017-07-09,0,340
2017-07-10,0,428
2017-07-11,4,385
2017-07-12,0,413
2017-07-13,1,411
2017-07-14,1,425
2017-07-15,0,341
2017-07-16,2,370
2017-07-17,1,451
2017-07-18,1,390
2017-07-19,4,438
2017-07-20,0,377
2017-07-21,2,501
2017-07-22,3,325
2017-07-23,1,370
2017-07-24,4,438
2017-07-25,1,389
2017-07-26,1,306
2017-07-27,2,429
2017-07-28,1,407
2017-07-29,0,369
2017-07-30,1,362
2017-07-31,2,436
2017-08-01,2,398
2017-08-02,1,380
2017-08-03,0,393
2017-08-04,3,396
2017-08-05,1,366
2017-08-06,1,328
2017-08-07,2,414
2017-08-08,0,413
2017-08-09,2,368
2017-08-10,0,370
2017-08-11,0,403
2017-08-12,2,343
2017-08-13,2,345
2017-08-14,2,387
2017-08-15,3,349
2017-08-16,1,343
2017-08-17,3,354
2017-08-18,1,366
2017-08-19,1,322
2017-08-20,1,295
2017-08-21,1,356
2017-08-22,0,352
2017-08-23,2,281
2017-08-24,1,348
2017-08-25,0,326
2017-08-26,0,310
2017-08-27,2,289
2017-08-28,2,358
2017-08-29,2,324
2017-08-30,1,339
2017-08-31,2,323
2017-09-01,2,315
2017-09-02,2,279
2017-09-03,0,294
2017-09-04,0,359
2017-09-05,0,332
2017-09-06,1,215
2017-09-07,0,305
2017-09-08,0,310
2017-09-09,1,266
2017-09-10,0,253
2017-09-11,1,308
2017-09-12,1,297
2017-09-13,2,199
2017-09-14,0,301
2017-09-15,1,283
2017-09-16,3,260
2017-09-17,4,251
2017-09-18,3,299
2017-09-19,1,293
2017-09-20,1,285
2017-09-21,2,295
2017-09-22,3,287
2017-09-23,1,238
2017-09-24,1,271
2017-09-25,0,275
2017-09-26,1,270
2017-09-27,3,256
2017-09-28,3,276
2017-09-29,1,269
2017-09-30,2,267
2017-10-01,0,247
2017-10-02,3,198
2017-10-03,1,241
2017-10-04,2,227
2017-10-05,3,238
2017-10-06,0,235
2017-10-07,1,247
2017-10-08,2,263
2017-10-09,0,304
2017-10-10,1,274
2017-10-11,0,283
2017-10-12,0,261
2017-10-13,0,278
2017-10-14,1,250
2017-10-15,1,257
2017-10-16,2,310
2017-10-17,0,280
2017-10-18,0,280
2017-10-19,1,286
2017-10-20,1,294
2017-10-21,3,284
2017-10-22,1,245
2017-10-23,1,300
2017-10-24,1,272
2017-10-25,2,280
2017-10-26,2,273
2017-10-27,2,278
2017-10-28,0,271
2017-10-29,1,288
2017-10-30,1,275
2017-10-31,0,255
2017-11-01,0,269
2017-11-02,2,287
2017-11-03,2,296
2017-11-04,3,284
2017-11-05,2,267
2017-11-06,0,161
2017-11-07,1,313
2017-11-08,1,255
2017-11-09,1,270
2017-11-10,2,291
2017-11-11,1,242
2017-11-12,1,246
2017-11-13,2,267
2017-11-14,0,283
2017-11-15,7,281
2017-11-16,3,276
2017-11-17,2,267
2017-11-18,6,250
2017-11-19,0,235
2017-11-20,1,275
2017-11-21,1,257
2017-11-22,2,243
2017-11-23,1,257
2017-11-24,1,268
2017-11-25,3,219
2017-11-26,0,219
2017-11-27,0,286
2017-11-28,1,258
2017-11-29,1,251
2017-11-30,2,221
2017-12-01,1,254
2017-12-02,0,234
2017-12-03,0,232
2017-12-04,0,274
2017-12-05,1,263
2017-12-06,0,249
2017-12-07,1,267
2017-12-08,0,276
2017-12-09,1,238
2017-12-10,1,249
2017-12-11,0,269
2017-12-12,0,271
2017-12-13,1,257
2017-12-14,1,266
2017-12-15,0,271
2017-12-16,0,237
2017-12-17,0,240
2017-12-18,1,259
2017-12-19,0,260
2017-12-20,1,248
2017-12-21,1,249
2017-12-22,0,265
2017-12-23,1,246
2017-12-24,0,236
2017-12-25,0,259
2017-12-26,0,264
2017-12-27,0,263
2017-12-28,2,240
2017-12-29,1,266
2017-12-30,0,251
2017-12-31,2,230
2018-01-01,0,225
2018-01-02,1,264
2018-01-03,1,232
2018-01-04,0,240
2018-01-05,0,239
2018-01-06,1,223
2018-01-07,1,233
2018-01-08,1,254
2018-01-09,0,233
2018-01-10,0,247
2018-01-11,2,259
2018-01-12,0,238
2018-01-13,0,207
2018-01-14,0,219
2018-01-15,0,267
2018-01-16,0,240
2018-01-17,1,238
2018-01-18,0,249
2018-01-19,2,246
2018-01-20,1,221
2018-01-21,1,227
2018-01-22,1,256
2018-01-23,0,257
2018-01-24,1,254
2018-01-25,0,264
2018-01-26,0,260
2018-01-27,1,213
2018-01-28,0,235
2018-01-29,1,252
2018-01-30,0,253
2018-01-31,0,242
2018-02-01,0,238
2018-02-02,3,228
2018-02-03,1,230
2018-02-04,3,233
2018-02-05,0,247
2018-02-06,1,252
2018-02-07,0,260
2018-02-08,0,223
2018-02-09,1,251
2018-02-10,0,216
2018-02-11,1,223
2018-02-12,1,208
2018-02-13,1,207
2018-02-14,0,199
2018-02-15,0,205
2018-02-16,0,185
2018-02-17,1,183
2018-02-18,0,196
2018-02-19,2,184
2018-02-20,1,219
2018-02-21,0,197
2018-02-22,0,239
2018-02-23,3,237
2018-02-24,1,223
2018-02-25,0,186
2018-02-26,1,240
2018-02-27,1,215
2018-02-28,0,236
2018-03-01,0,218
2018-03-02,1,238
2018-03-03,0,212
2018-03-04,0,198
2018-03-05,0,228
2018-03-06,2,241
2018-03-07,1,249
2018-03-08,0,227
2018-03-09,2,240
2018-03-10,0,230
2018-03-11,1,215
2018-03-12,1,232
2018-03-13,0,251
2018-03-14,1,250
2018-03-15,2,254
2018-03-16,0,246